View from above orbital plane
|
View from above satellite
|
Ground track
|
The orbit data is extracted from the following two-line orbital elements,
1 24834U 97029A 19340.97202135 -.00000117 00000-0 00000+0 0 9993
2 24834 14.4233 23.0525 0097069 182.0529 166.9511 0.96051096 80491
Epoch (UTC): | 06 December 2019 23:19:42 |
Eccentricity: | 0.0097069 |
inclination: | 14.4233° |
perigee height: | 36591 km |
apogee height: | 37434 km |
right ascension of ascending node: | 23.0525° |
argument of perigee: | 182.0529° |
revolutions per day: | 0.96051096 |
mean anomaly at epoch: | 166.9511° |
orbit number at epoch: | 8049 |
The dashed part of the orbit path shows where the satellite is in the earth's shadow,
|
|